www.pogodaiklimat.ru

Погода и климат >> Архив погоды >> Беларусь >> Гродно


АРХИВ ПОГОДЫ в Гродно

Время (UTC), дата Ветер
(напр.,м/с)
 
Видим.   Явления Облачность Т
(С)
Тd
(С)
f
(%)
Тe
(С)
Тes
(С)
Комфортность P
(гПа)
Po
(гПа)
Тmin
(С)
Tmax
(С)
R
(мм)
R24
(мм)
S
(см)
00 12.12 СЗ 2 8000 м дымка 9/9 240 м
[Sc]
-0.4 -1.0 96 -4 -4 по сезону 1016.8 998.1
03 12.12 С 3 4200 м дымка 10/10 90 м
[St]
-0.2 -0.5 98 -5 -5 по сезону 1017.4 998.7
06 12.12 С 3 2200 м слабый снег 10/10 90 м
[Frnb Ns]
-0.3 -0.6 98 -5 -5 по сезону 1018.8 1000.1 -0.4 0.0 <0.5
09 12.12 С 4 4500 м слабый снег 10/10 120 м
[Frnb Ns]
-0.4 -1.0 96 -6 -6 по сезону 1020.0 1001.3
12 12.12 С 4 4500 м слабый снег 10/10 120 м
[Frnb Ns]
+0.2 -0.4 96 -5 -5 по сезону 1020.0 1001.3
15 12.12 С 4 3800 м в посл. час снег 10/10 120 м
[St]
+0.4 -0.2 96 -5 -5 по сезону 1020.8 1002.1
18 12.12 С 3 2500 м дымка {снег} 10/10 60 м
[St]
+0.6 +0.3 98 -4 -4 по сезону 1021.6 1002.9 +0.6 2
21 12.12 С 3 3200 м дымка 10/10 90 м
[St]
+0.6 +0.3 98 -4 -4 по сезону 1021.6 1002.9
00 13.12 С 3 6000 м дымка 10/10 180 м
[St]
+0.2 -0.7 94 -5 -5 по сезону 1022.1 1003.3
03 13.12 С 5 6000 м дымка 10/10 240 м
[St]
-0.2 -1.7 90 -6 -6 по сезону 1022.1 1003.3
06 13.12 СВ 4 6000 м слабый снег 10/10 480 м
[Frnb Ns]
-0.4 -1.6 92 -6 -6 по сезону 1022.1 1003.3 -0.4 0.0 <0.5
09 13.12 С 5 12 км {снег} 10/10 480 м
[St]
-0.3 -2.7 84 -6 -6 по сезону 1022.6 1003.8
12 13.12 С 4 12 км {снег} 9/9 600 м
[Sc]
-0.4 -3.2 81 -6 -6 по сезону 1022.1 1003.3
15 13.12 С 4 12 км 9/9 800 м
[Sc]
-0.8 -2.9 86 -6 -6 по сезону 1022.1 1003.3
18 13.12 8000 м слабый снег н/о -0.8 -2.3 90 -7 -7 по сезону 1022.9 1004.1 -0.2 0.0
21 13.12 С 4 10 км {снег} 10/10 360 м
[St]
-0.7 -2.2 90 -6 -6 по сезону 1023.4 1004.6
00 14.12 С 5 10 км {снег} 10/10 420 м
[St]
-0.6 -1.8 92 -7 -7 по сезону 1023.7 1004.9
03 14.12 С 4 7000 м слабый снег 10/10 270 м
[Frnb Ns]
-0.9 -1.5 96 -7 -7 по сезону 1024.2 1005.4
06 14.12 СВ 4 9000 м слабый снег 10/10 360 м
[Frnb Ns]
-0.6 -1.5 94 -6 -6 по сезону 1024.8 1006.0 -0.9 0.2 <0.5
09 14.12 СВ 4 9000 м слабый снег 10/10 240 м
[Frnb Ns]
-0.4 -1.3 94 -6 -6 по сезону 1026.4 1007.5
12 14.12 СВ 3 9000 м слабый снег 10/10 270 м
[Frnb Ns]
+0.1 -1.0 92 -5 -5 по сезону 1026.9 1008.0
15 14.12 СВ 3 10 км {снег} 10/10 300 м
[St]
-0.1 -1.3 92 -5 -5 по сезону 1027.9 1009.0
18 14.12 СВ 2 10 км {снег} 10/10 330 м
[St]
-0.2 -1.4 92 -4 -4 по сезону 1028.9 1010.0 +0.1 0.2
21 14.12 СВ 3 7000 м слабый снег 10/10 210 м
[Frnb Ns]
-0.5 -1.1 96 -5 -5 по сезону 1029.5 1010.6
00 15.12 СВ 2 9000 м дымка {снег} 10/10 180 м
[St]
-0.6 -1.2 96 -5 -5 по сезону 1029.8 1010.9
03 15.12 СВ 2 10 км 10/10 180 м
[St]
-0.6 -1.5 94 -4 -4 по сезону 1030.1 1011.2
06 15.12 В 3 8000 м дымка 9/8 180 м
[St Ac trans]
-0.7 -1.3 96 -6 -6 по сезону 1030.8 1011.9 -0.9 0.3 1
09 15.12 СВ 3 7000 м в посл. час ливневой снег 9/8 240 м
[St Ac trans]
-0.6 -1.5 94 -6 -5 по сезону 1031.8 1012.8
12 15.12 СВ 3 6000 м слабый снег {ливн. осадки} 10/10 210 м
[Frnb Ns]
-0.5 -1.1 96 -5 -5 по сезону 1031.8 1012.8
15 15.12 В 4 8000 м дымка {снег} 10/10 270 м
[St]
-0.6 -1.8 92 -6 -6 по сезону 1031.5 1012.5
18 15.12 В 5 9000 м дымка {снег} 9/8 300 м
[St Ac trans]
-1.1 -3.3 85 -7 -7 по сезону 1031.5 1012.5 -0.5 0.0
21 15.12 В 4 10 км 10/10 360 м
[St]
-1.6 -3.8 85 -7 -7 по сезону 1031.1 1012.0
00 16.12 В 4 10 км 10/10 270 м
[St]
-1.6 -3.2 89 -7 -7 по сезону 1029.9 1010.8
03 16.12 В 6
{10}
10 км 10/10 270 м
[St]
-1.7 -2.9 91 -9 -9 по сезону 1028.5 1009.4
06 16.12 В 5 1600 м слабый снег {метель} 10/10 180 м
[Frnb Ns]
-2.0 -2.6 96 -9 -9 по сезону 1027.3 1008.2 -2.0 0.5 1
09 16.12 Ю 6
{10}
1700 м слабый снег {метель} 10/10 240 м
[Frnb Ns]
-2.0 -2.3 98 -9 -9 по сезону 1026.7 1007.6
12 16.12 В 6
{11}
2900 м слабый снег {метель} 10/10 210 м
[Frnb Ns]
-1.9 -2.5 96 -9 -9 прохладно 1023.9 1004.9
15 16.12 ЮВ 7-11
{13}
2200 м снег {метель} 10/10 270 м
[Frnb Ns]
-2.2 -3.1 94 -10 -10 прохладно 1023.6 1004.6
18 16.12 ЮВ 7-11
{13}
1700 м снег {метель} 10/10 270 м
[Frnb Ns]
-2.6 -3.2 96 -11 -11 прохладно 1023.8 1004.8 -1.9 4
21 16.12 ЮВ 5
{11}
1300 м снег {метель} 10/10 270 м
[Frnb Ns]
-2.7 -3.4 95 -10 -10 по сезону 1024.0 1005.0
00 17.12 Ю 5 1900 м слабый снег {метель} 10/10 300 м
[Frnb Ns]
-2.7 -3.0 98 -10 -10 по сезону 1023.6 1004.6
03 17.12 ЮВ 4 1800 м слабый снег {метель} 10/10 240 м
[Frnb Ns]
-2.8 -3.5 95 -9 -9 по сезону 1023.4 1004.4
06 17.12 ЮВ 4 1100 м снег {метель} 10/10 330 м
[Frnb Ns]
-3.1 -3.8 95 -9 -9 по сезону 1023.4 1004.4 -3.1 5 5
09 17.12 ЮВ 4 1100 м снег {метель} 10/10 180 м
[Frnb Ns]
-3.1 -3.5 97 -9 -9 по сезону 1024.3 1005.3
12 17.12 ЮВ 4 1700 м слабый снег {метель} 10/10 180 м
[Frnb Ns]
-2.8 -3.5 95 -9 -9 по сезону 1024.0 1005.0
15 17.12 ЮВ 3 2100 м слабый снег {метель} 10/10 180 м
[Frnb Ns]
-3.1 -3.5 97 -9 -9 по сезону 1024.8 1005.8
18 17.12 ЮВ 4 3200 м в посл. час снег {метель} 9/8 180 м
[St Ac trans]
-3.3 -4.0 95 -10 -10 прохладно 1025.6 1006.6 -2.8 6
21 17.12 ЮВ 2 8000 м дымка 9/8 300 м
[St Ac trans]
-3.4 -4.5 92 -8 -8 по сезону 1026.8 1007.6
00 18.12 ЮВ 2 7000 м дымка 10/10 270 м
[St]
-3.6 -4.7 92 -8 -8 по сезону 1027.3 1008.1
03 18.12 ЮВ 2 7000 м дымка 10/10 210 м
[St]
-3.5 -4.3 94 -8 -8 по сезону 1027.5 1008.3
06 18.12 Ю 2 200 м переохл. туман ?/? -3.2 -3.2 100 -8 -8 по сезону 1028.2 1009.1 -3.6 8
09 18.12 Ю 2 200 м переохл. туман ?/? -2.7 -2.7 100 -7 -7 по сезону 1029.3 1010.2
12 18.12 штиль 0 3000 м слабый снег {туман} 10/10 90 м
[Frnb Ns]
-2.2 -2.5 98 -4 -4 по сезону 1029.6 1010.5
15 18.12 В 2 1100 м дымка {снег} 10/10 60 м
[St]
-2.5 -2.8 98 -7 -7 по сезону 1030.4 1011.3
18 18.12 Ю 2 300 м переохл. туман {снег} ?/? -2.7 -2.7 100 -7 -7 по сезону 1031.0 1011.9 -2.2 0.0

 

Местоположение метеостанции Гродно (Гродненская область, Беларусь): широта 53.60 долгота 24.04 высота над уровнем моря 134 м.

В архиве по умолчанию представлена погода в Гродно за последнюю неделю. Архивные данные за месяц целиком и за предыдущие месяцы, начиная с января 2011 года, Вы можете получить, выбрав интересующий диапазон дат из раскрывающегося списка и нажав кнопку "Ввод!".


*Определитесь, кто Вы:
робот инопланетянин человек

Внимание! Время в таблицах - всемирное. Для получения местного времени необходимо прибавить поправку, которая в Гродно равна 3 ч.

Смотрите также архив погоды в соседних городах и на ближайших метеорологических станциях:

Погода в Волковыске (Гродненская область, Беларусь) (55 км)
Погода в Varena (Литва) (80 км)
Погода в Bialystok (Польша) (80 км)
Погода в Alytus (Литва) (90 км)
Погода в Лиде (Гродненская область, Беларусь) (91 км)
Погода в Suwalki (Польша) (93 км)
Погода в Marijampole (Литва) (113 км)
Погода в Новогрудке (Гродненская область, Беларусь) (119 км)
Погода в Пружанах (Брестская область, Беларусь) (121 км)
Погода в Виштынце (Калининградская область, Россия) (127 км)

Пояснения к столбцам:

Ветер - указаны скорость ветра в м/с - средняя за 10 мин, порывы в срок и между сроками (в фигурных скобках) и направление, откуда дует ветер: С - северный, СВ - северо-восточный, В - восточный, ЮВ - юго-восточный, Ю - южный, ЮЗ - юго-западный, З - западный, СЗ - северо-западный.
Видимость - горизонтальная дальность видимости в метрах или километрах. При видимости от 1 до 10 км при отсутствии осадков обычно наблюдается дымка, при ухудшении видимости до 1 км и менее - туман. В сухую погоду видимость может ухудшаться дымом, пылью или мглою.
Явления - указаны атмосферные явления, наблюдавшиеся в срок или в последний час перед сроком; фигурными скобками обозначены явления, наблюдавшиеся между сроками (за 1-3 часа до срока); квадратными скобками обозначены град или гололедные отложения с указанием их диаметра в мм.
Облачность - указаны через наклонную черту общая и нижняя облачность в баллах и высота нижней границы облаков в метрах; квадратными скобками обозначены формы облаков: Ci - перистые, Cs - перисто-слоистые, Cc - перисто-кучевые, Ac - высококучевые, As - высокослоистые, Sc - слоисто-кучевые, Ns - слоисто-дождевые, Cu - кучевые, Cb - кучево-дождевые. Подробнее классификацию облаков см. в Атласе облаков (PDF).
T - Температура воздуха - температура, измеренная на высоте 2 м над землей.
Td - Температура точки росы - температура, при понижении до которой содержащийся в воздухе водяной пар достигнет насыщения.
f - Относительная влажность воздуха - влажноcть воздуха, измеренная на высоте 2 м над землей.
Te - Эффективная температура - температура, которую ощущает одетый по сезону человек в тени. Характеристика душности погоды. При расчете учитывается влияние влажности воздуха и скорости ветра на теплоощущения человека.
Tes - Эффективная температура на солнце - температура, которую ощущает человек, с поправкой на солнечный нагрев. Характеристика знойности погоды. Зависит от высоты солнца над горизонтом, облачности и скорости ветра. Ночью, в пасмурную погоду, а также при ветре 12 м/с и более поправка равна нулю.
P - Атмосферное давление - приведенное к уровню моря атмосферное давление.
Po - Атмосферное давление - измеренное на уровне метеостанции атмосферное давление.
Tmin - Минимальная температура - минимум температуры воздуха на высоте 2 м над землей.
Tmax - Максимальная температура - максимум температуры воздуха на высоте 2 м над землей.
R - Количество осадков - Количество выпавших осадков за период времени, мм. При наведении курсора мыши на число - период времени, за который выпало указанное количество осадков.
R24 - Количество осадков - Количество выпавших осадков за 24 часа, мм.
S - Снежный покров - Высота снежного покрова, см. При наведении курсора мыши на число - состояние снежного покрова и степень покрытия местности в баллах.